Location: Newark
(55.7816°N, 8.2389°E)
Time: 03:00:01
(UTC+00:00)

UNISAT 6 - Visible Passes

Search period start: 28 February 2020 00:00
Search period end: 09 March 2020 00:00
Orbit: 607 x 689 km, 97.7° (Epoch: 27 February)

Date Brightness Start Highest point End Pass type
(mag) Time Alt. Az. Time Alt. Az. Time Alt. Az.
28 Feb ? 19:12:04 10° NNE 19:12:56 14° NE 19:12:56 14° NE visible
28 Feb ? 20:48:33 10° N 20:50:42 26° N 20:50:42 26° N visible
28 Feb ? 22:27:04 10° NNW 22:28:28 12° NW 22:28:28 12° NW visible
29 Feb ? 04:44:29 10° ENE 04:46:12 12° NE 04:47:57 10° NNE visible
29 Feb ? 19:37:45 10° NNE 19:39:27 21° NE 19:39:27 21° NE visible
29 Feb ? 21:14:41 10° N 21:17:13 26° NNW 21:17:13 26° NNW visible
01 Mar ? 05:08:52 10° E 05:11:47 18° NE 05:14:45 10° NNE visible
01 Mar ? 20:03:36 10° NNE 20:05:59 30° NNE 20:05:59 30° NNE visible
01 Mar ? 21:40:58 10° N 21:43:45 22° NW 21:43:45 22° NW visible
02 Mar ? 05:33:49 10° ESE 05:37:26 26° ENE 05:41:08 10° N visible
02 Mar ? 18:53:30 10° NE 18:54:45 15° NE 18:54:45 15° NE visible
02 Mar ? 20:29:33 10° NNE 20:32:31 39° N 20:32:31 39° N visible
02 Mar ? 22:07:26 10° NNW 22:10:09 16° NW 22:10:18 16° NW visible
03 Mar ? 19:19:00 10° NNE 19:21:17 24° NE 19:21:17 24° NE visible
03 Mar ? 20:55:38 10° N 20:59:03 39° NNW 20:59:03 39° NNW visible
03 Mar ? 22:34:32 10° NNW 22:35:42 11° NW 22:36:49 10° WNW visible
04 Mar ? 04:50:54 10° E 04:53:07 14° NE 04:55:23 10° NNE visible
04 Mar ? 19:44:45 10° NNE 19:47:49 37° NE 19:47:49 37° NE visible
04 Mar ? 21:21:48 10° N 21:25:35 29° NW 21:25:35 29° NW visible
05 Mar ? 05:15:31 10° ESE 05:18:44 20° NE 05:22:00 10° N visible
05 Mar ? 18:35:09 10° NE 18:36:35 14° ENE 18:36:35 14° ENE visible
05 Mar ? 20:10:38 10° NNE 20:14:21 57° NNE 20:14:21 57° NNE visible
05 Mar ? 21:48:07 10° N 21:51:31 20° NW 21:52:07 20° WNW visible
06 Mar ? 19:00:22 10° NE 19:03:07 22° ENE 19:03:07 22° ENE visible
06 Mar ? 20:36:38 10° N 20:40:53 60° NW 20:40:53 60° NW visible
06 Mar ? 22:14:40 10° NNW 22:17:07 14° NW 22:18:39 12° WNW visible
07 Mar ? 04:33:30 10° ENE 04:34:32 11° NE 04:35:34 10° NNE visible
07 Mar ? 19:25:58 10° NNE 19:29:39 36° ENE 19:29:39 36° ENE visible
07 Mar ? 21:02:43 10° N 21:07:04 40° WNW 21:07:25 39° WNW visible
08 Mar ? 04:57:25 10° E 05:00:03 16° NE 05:02:44 10° NNE visible
08 Mar ? 18:17:31 10° ENE 18:18:25 11° ENE 18:18:25 11° ENE visible
08 Mar ? 19:51:45 10° NNE 19:56:11 60° E 19:56:11 60° E visible
08 Mar ? 21:28:56 10° N 21:32:49 27° WNW 21:33:57 24° W visible
